Location: Dos Palmas
(32.4468°N, 116.8732°W)
Time: 05:26:24
(UTC+00:00)

Cosmos 1812 - Pass Details

Date: 20 June 2021
Orbit: 516 x 519 km, 82.5° (Epoch: 29 July)

Event Time Altitude Azimuth Distance (km) Brightness Sun altitude
Rises 11:39:06 0° 338° (NNW) 2,636 6.5 -11.7°
Reaches altitude 10° 11:41:32 10° 323° (NW) 1,745 5.4 -11.3°
Maximum altitude 11:44:36 23° 270° (W) 1,120 3.9 -10.8°
Enters shadow 11:46:48 15° 226° (SW) 1,470 4.3 -10.4°
